#timestamp,LO_Frequency,Hit,StdDev 
1609470015.7,286047000.0,N
1609470035.6,286046998.2,N
1609470055.4,286047001.1,N
1609470075.3,286047001.0,N
1609470095.1,286046998.8,N
1609470096.0,286046998.8,N
1609470115.8,286046998.6,N
1609470135.7,286047001.1,N
1609470155.5,286047001.0,N
1609470175.3,286047000.0,N
1609470195.2,286047000.4,N
1609470215.0,286046998.2,N
1609470215.9,286046998.2,N
1609470235.8,286047001.0,N
1609470255.6,286046998.3,N
1609470275.4,286046999.4,N
1609470295.3,286046996.5,Y
1609470315.1,286046996.9,P
1609470335.9,286046998.3,N
1609470355.7,286046998.5,N
1609470375.5,286046998.1,N
1609470395.4,286047001.6,N
1609470415.2,286047001.9,N
1609470435.0,286047004.0,N
1609470435.9,286047004.0,N
1609470455.8,286047002.1,N
1609470475.6,286047005.7,N
1609470495.5,286047003.5,N
1609470515.3,286047004.0,N
1609470535.1,286047002.1,N
1609470555.9,286047001.9,N
1609470575.7,286047001.8,N
1609470595.5,286047001.5,N
1609470615.4,286047002.6,N
1609470635.2,286047002.1,N
1609470655.1,286047002.3,N
1609470656.0,286047002.3,N
1609470675.8,286047002.0,N
1609470695.6,286047000.6,N
1609470715.5,286047002.0,N
1609470735.3,286047002.1,N
1609470755.1,286047002.2,N
1609470775.9,286047002.0,N
1609470795.7,286047002.6,N
1609470815.6,286047000.1,N
1609470835.4,286047000.0,N
1609470855.2,286046999.9,N
1609470875.1,286046999.7,N
1609470876.0,286046999.7,N
1609470895.8,286047000.2,N
1609470915.6,286047000.0,N
1609470935.5,286046999.7,N
1609470955.3,286047000.4,N
1609470975.2,286047002.4,N
1609470995.9,286047000.5,N
1609471015.7,286046999.9,N
1609471035.6,286047002.8,N
1609471055.4,286047002.3,N
1609471075.2,286047000.6,N
1609471095.1,286047000.2,N
1609471096.0,286047000.2,N
1609471115.8,286046999.7,N
1609471135.7,286047000.7,N
1609471155.5,286047002.7,N
1609471175.3,286047000.0,N
1609471195.2,286046998.2,N
1609471215.0,286047001.0,N
1609471215.9,286047001.0,N
1609471235.8,286047002.4,N
1609471255.6,286047001.8,N
1609471275.4,286047001.9,N
1609471295.3,286047001.6,N
1609471315.1,286047004.1,Y
1609471335.9,286047001.6,P
1609471355.7,286047002.2,P
1609471375.5,286047002.0,P
1609471395.4,286047002.2,Y
1609471415.2,286046998.1,P
1609471435.0,286046999.4,N
1609471435.9,286046999.4,N
1609471455.8,286046996.8,N
1609471475.6,286046997.2,N
1609471495.5,286046996.8,N
1609471515.3,286046999.5,N
1609471535.1,286046998.9,N
1609471555.9,286046998.9,N
1609471575.7,286046998.9,N
1609471595.5,286046996.6,N
1609471615.4,286046996.6,N
1609471635.2,286046999.1,N
1609471655.1,286046998.3,N
1609471656.0,286046998.3,N
1609471675.8,286046998.4,N
1609471695.6,286046996.5,N
1609471715.5,286046999.0,N
1609471735.3,286046998.9,N
1609471755.1,286046999.1,N
1609471775.9,286046998.7,N
1609471795.7,286046999.0,N
1609471815.6,286046998.5,N
1609471835.4,286046998.6,N
1609471855.2,286046998.2,N
1609471875.1,286047000.8,N
1609471876.0,286047000.8,N
1609471895.8,286046998.2,N
1609471915.6,286046998.3,N
1609471935.5,286047000.8,N
1609471955.3,286047000.9,N
1609471975.2,286047001.1,N
1609471995.9,286047001.0,N
1609472015.7,286047000.7,N
1609472035.6,286047000.6,N
1609472055.4,286046998.1,N
1609472075.2,286047000.6,N
1609472095.1,286047000.4,N
1609472096.0,286047000.4,N
1609472115.8,286047000.5,N
1609472135.7,286046998.4,N
1609472155.5,286046999.4,N
1609472175.3,286046998.8,N
1609472195.2,286046998.4,N
1609472215.0,286047001.1,N
1609472215.9,286047001.1,N
1609472235.8,286046998.8,N
1609472255.6,286046999.0,N
1609472275.5,286046996.6,Y
1609472295.3,286047000.2,P
1609472315.1,286047000.5,N
1609472335.9,286046999.7,N
1609472355.7,286047002.3,Y
1609472375.6,286047000.1,P
1609472395.4,286047002.8,P
1609472415.2,286047002.8,N
1609472435.1,286047000.2,N
1609472436.0,286047000.2,N
1609472455.8,286047002.3,N
1609472475.6,286047002.6,N
1609472495.5,286047000.1,N
1609472515.3,286047002.6,N
1609472535.2,286047001.8,N
1609472555.9,286047002.4,N
1609472575.7,286047000.8,N
1609472595.6,286046999.8,N
1609472615.4,286047001.2,N
1609472635.2,286046998.6,N
1609472655.1,286047000.9,N
1609472656.0,286047000.9,N
1609472675.8,286046999.6,N
1609472695.7,286046999.4,N
1609472715.5,286047000.9,N
1609472735.3,286046998.2,N
1609472755.2,286046999.4,N
1609472775.0,286046998.8,N
1609472775.9,286046998.8,N
1609472795.7,286047001.0,N
1609472815.6,286046999.4,N
1609472835.4,286046999.2,N
1609472855.3,286046999.6,N
1609472875.1,286046995.6,Y
1609472876.0,286046995.6,P
1609472895.8,286046993.3,N
1609472915.7,286046995.2,N
1609472935.5,286046995.5,N
1609472955.3,286046997.6,N
1609472975.2,286046997.0,N
1609472995.0,286046999.6,N
1609472995.9,286046999.6,N
1609473015.8,286046999.1,N
1609473035.6,286046997.0,N
1609473055.4,286046999.5,N
1609473075.3,286046997.0,N
1609473095.1,286046996.7,N
1609473115.8,286046996.8,N
1609473135.7,286046994.9,N
1609473155.5,286046995.0,N
1609473175.4,286046995.4,N
1609473195.2,286046995.7,N
1609473215.0,286046997.3,N
1609473215.9,286046997.3,N
1609473235.8,286046997.1,N
1609473255.6,286046996.7,N
1609473275.5,286046995.3,N
1609473295.3,286046995.0,N
1609473315.1,286046995.2,N
1609473335.9,286046995.0,N
1609473355.7,286046995.3,N
1609473375.5,286046995.8,N
1609473425.4,286046994.7,E
1609473465.4,286046999.0,E
1609473475.3,286046998.3,N
1609473495.1,286046998.5,P
1609473515.8,286046999.5,P
1609473535.7,286046996.5,Y
1609473555.5,286047001.1,P
1609473575.4,286046998.3,N
1609473595.2,286047000.8,N
